﻿_id,日時,平均風速(m/s),平均風向,最大瞬間風速(m/s),最大風速時風向,気温(℃),湿度(%),10分間移動積算雨量(mm),1時間移動積算雨量(mm),日雨量(mm),累計雨量(mm),日射(日積算)(MJ/m2),日照(日積算)(min),現地気圧(hPa),海面気圧(hPa)
1,2020-06-22T00:00:00,0.8,北北東,1.9,北東,19.5,90.6,0,0,0,0,21.97,483,996.4,1010
2,2020-06-22T00:01:00,0.8,北北東,1.9,北東,19.5,91,0,0,0,0,0,0,996.4,1010
3,2020-06-22T00:02:00,0.8,北北東,1.9,北東,19.4,90.7,0,0,0,0,0,0,996.4,1010
4,2020-06-22T00:03:00,0.7,北,1.9,北東,19.5,90.8,0,0,0,0,0,0,996.4,1010
5,2020-06-22T00:04:00,0.6,北,1.9,北東,19.5,91,0,0,0,0,0,0,996.5,1010.1
6,2020-06-22T00:05:00,0.6,北,1.7,北北東,19.4,90.8,0,0,0,0,0,0,996.5,1010.1
7,2020-06-22T00:06:00,0.5,北,1.6,北東,19.5,91.1,0,0,0,0,0,0,996.4,1010
8,2020-06-22T00:07:00,0.5,北,1.4,北東,19.5,91.2,0,0,0,0,0,0,996.4,1010
9,2020-06-22T00:08:00,0.5,北,1.3,北,19.5,91.1,0,0,0,0,0,0,996.4,1010
10,2020-06-22T00:09:00,0.6,北北東,1.3,北,19.6,91.2,0,0,0,0,0,0,996.4,1010
11,2020-06-22T00:10:00,0.6,北北東,1.3,北,19.6,91.1,0,0,0,0,0,0,996.4,1010
12,2020-06-22T00:11:00,0.6,北北東,1.2,北北東,19.7,91,0,0,0,0,0,0,996.4,1009.9
13,2020-06-22T00:12:00,0.6,北北東,1.2,北北東,19.5,90.5,0,0,0,0,0,0,996.4,1010
14,2020-06-22T00:13:00,0.6,北北東,1.2,北北東,19.6,90.7,0,0,0,0,0,0,996.4,1010
15,2020-06-22T00:14:00,0.7,北北東,1.6,東北東,19.6,90.7,0,0,0,0,0,0,996.4,1010
16,2020-06-22T00:15:00,0.7,北北東,1.6,東北東,19.4,90.4,0,0,0,0,0,0,996.4,1010
17,2020-06-22T00:16:00,0.8,北北東,2.1,北北東,19.5,90.6,0,0,0,0,0,0,996.4,1010
18,2020-06-22T00:17:00,0.8,北北東,2.1,北北東,19.5,90.5,0,0,0,0,0,0,996.4,1010
19,2020-06-22T00:18:00,0.9,北北東,2.1,北北東,19.4,90.4,0,0,0,0,0,0,996.4,1010
20,2020-06-22T00:19:00,0.9,北北東,2.1,北北東,19.4,90.3,0,0,0,0,0,0,996.4,1010
21,2020-06-22T00:20:00,0.9,北,2.1,北北東,19.5,90.6,0,0,0,0,0,0,996.4,1010
22,2020-06-22T00:21:00,1,北,2.1,北北東,19.2,89.9,0,0,0,0,0,0,996.3,1009.9
23,2020-06-22T00:22:00,1.1,北,2.1,北北東,19.3,89.4,0,0,0,0,0,0,996.3,1009.9
24,2020-06-22T00:23:00,1.1,北北西,2.1,北北東,19.3,89.3,0,0,0,0,0,0,996.3,1009.9
25,2020-06-22T00:24:00,1,北北西,2.1,北北東,19.2,89.3,0,0,0,0,0,0,996.3,1009.9
26,2020-06-22T00:25:00,0.9,北北西,2.1,北北東,19.2,89.3,0,0,0,0,0,0,996.3,1009.9
27,2020-06-22T00:26:00,0.8,北北西,2.1,西北西,19.4,90,0,0,0,0,0,0,996.3,1009.9
28,2020-06-22T00:27:00,0.8,北北西,2.1,西北西,19.5,90.3,0,0,0,0,0,0,996.3,1009.9
29,2020-06-22T00:28:00,0.8,北北西,2.1,西北西,19.4,90,0,0,0,0,0,0,996.2,1009.8
30,2020-06-22T00:29:00,0.8,北北西,2.1,西北西,19.4,90.2,0,0,0,0,0,0,996.2,1009.8
31,2020-06-22T00:30:00,0.7,北,2.1,西北西,19.5,90.5,0,0,0,0,0,0,996.2,1009.8
32,2020-06-22T00:31:00,0.6,北,1.6,西,19.3,89.8,0,0,0,0,0,0,996.2,1009.8
33,2020-06-22T00:32:00,0.6,北北東,1.3,北北東,19.4,90.1,0,0,0,0,0,0,996.2,1009.8
34,2020-06-22T00:33:00,0.7,北北東,1.7,北北東,19.5,90.3,0,0,0,0,0,0,996.2,1009.8
35,2020-06-22T00:34:00,0.7,北北東,1.7,北北東,19.5,90.4,0,0,0,0,0,0,996.2,1009.8
36,2020-06-22T00:35:00,0.7,北北東,1.7,北北東,19.5,90,0,0,0,0,0,0,996.1,1009.7
37,2020-06-22T00:36:00,0.7,北北東,1.7,北北東,19.4,89.6,0,0,0,0,0,0,996.1,1009.7
38,2020-06-22T00:37:00,0.7,北北東,1.7,北北東,19.3,89.3,0,0,0,0,0,0,996.1,1009.7
39,2020-06-22T00:38:00,0.7,北北東,1.7,北北東,19.3,89.4,0,0,0,0,0,0,996.1,1009.7
40,2020-06-22T00:39:00,0.8,北北東,1.8,北東,19.4,89.9,0,0,0,0,0,0,996.1,1009.7
41,2020-06-22T00:40:00,1,北北東,1.9,北東,19.5,90,0,0,0,0,0,0,996.1,1009.7
42,2020-06-22T00:41:00,1,北北東,1.9,北東,19.3,89.4,0,0,0,0,0,0,996.1,1009.7
43,2020-06-22T00:42:00,1.1,北北東,1.9,北東,19.4,89.8,0,0,0,0,0,0,996.2,1009.8
44,2020-06-22T00:43:00,1,北北東,1.9,北東,19.4,89.9,0,0,0,0,0,0,996.2,1009.8
45,2020-06-22T00:44:00,1.1,北北東,2,北東,19.3,89.6,0,0,0,0,0,0,996.2,1009.8
46,2020-06-22T00:45:00,1.1,北東,2,北東,19.2,90,0,0,0,0,0,0,996.2,1009.8
47,2020-06-22T00:46:00,1.2,北東,2,北東,19.3,90.8,0,0,0,0,0,0,996.2,1009.8
48,2020-06-22T00:47:00,1.2,北東,2,北東,19.3,90.9,0,0,0,0,0,0,996.2,1009.8
49,2020-06-22T00:48:00,1.2,北東,2,北東,19.3,91.1,0,0,0,0,0,0,996.2,1009.8
50,2020-06-22T00:49:00,1.1,北北東,2,北東,19.1,90.9,0,0,0,0,0,0,996.2,1009.8
51,2020-06-22T00:50:00,1,北北東,2,北東,19.1,91,0,0,0,0,0,0,996.2,1009.8
52,2020-06-22T00:51:00,0.9,北北東,2,北東,19.1,91.5,0,0,0,0,0,0,996.2,1009.8
53,2020-06-22T00:52:00,0.9,北北東,2,北東,19.1,91.7,0,0,0,0,0,0,996.2,1009.8
54,2020-06-22T00:53:00,0.9,北北東,2,北東,19.1,91.9,0,0,0,0,0,0,996.2,1009.8
55,2020-06-22T00:54:00,0.9,北北東,1.7,北東,19.3,92.1,0,0,0,0,0,0,996.2,1009.8
56,2020-06-22T00:55:00,0.9,北北東,1.7,北東,19.4,92.2,0,0,0,0,0,0,996.2,1009.8
57,2020-06-22T00:56:00,0.9,北北東,1.6,北北東,19.5,92.1,0,0,0,0,0,0,996.2,1009.8
58,2020-06-22T00:57:00,0.8,北北東,1.5,北北東,19.3,91.4,0,0,0,0,0,0,996.2,1009.8
59,2020-06-22T00:58:00,0.9,北北東,1.5,北北東,19.3,90.8,0,0,0,0,0,0,996.2,1009.8
60,2020-06-22T00:59:00,1,北北東,1.5,北北東,19.2,90.8,0,0,0,0,0,0,996.2,1009.8
61,2020-06-22T01:00:00,1,北北東,1.8,北,19.2,91,0,0,0,0,0,0,996.2,1009.8
62,2020-06-22T01:01:00,1.1,北北東,2.2,北北東,19.3,90.9,0,0,0,0,0,0,996.2,1009.8
63,2020-06-22T01:02:00,1.2,北北東,2.2,北北東,19.4,91,0,0,0,0,0,0,996.2,1009.8
64,2020-06-22T01:03:00,1.1,北北東,2.2,北北東,19.4,90.6,0,0,0,0,0,0,996.2,1009.8
65,2020-06-22T01:04:00,1.2,北北東,2.2,北北東,19.5,90.3,0,0,0,0,0,0,996.3,1009.9
66,2020-06-22T01:05:00,1.2,北北東,2.2,北北東,19.4,89.9,0,0,0,0,0,0,996.3,1009.9
67,2020-06-22T01:06:00,1.2,北北東,2.2,北北東,19.2,88.9,0,0,0,0,0,0,996.3,1009.9
68,2020-06-22T01:07:00,1.2,北北東,2.2,北北東,19.2,89.3,0,0,0,0,0,0,996.3,1009.9
69,2020-06-22T01:08:00,1.3,北北東,2.2,北北東,19.3,90,0,0,0,0,0,0,996.3,1009.9
70,2020-06-22T01:09:00,1.3,北北東,2.2,北北東,19.3,89.7,0,0,0,0,0,0,996.3,1009.9
71,2020-06-22T01:10:00,1.3,北北東,2.2,北北東,19.3,89.7,0,0,0,0,0,0,996.3,1009.9
72,2020-06-22T01:11:00,1.2,北北東,2.2,北東,19.2,90,0,0,0,0,0,0,996.3,1009.9
73,2020-06-22T01:12:00,1.2,北北東,2.2,北東,19.1,89.8,0,0,0,0,0,0,996.3,1009.9
74,2020-06-22T01:13:00,1.2,北東,2.2,北東,19.2,90.1,0,0,0,0,0,0,996.2,1009.8
75,2020-06-22T01:14:00,1.1,北東,2.2,北東,19.2,90.4,0,0,0,0,0,0,996.2,1009.8
76,2020-06-22T01:15:00,1.1,北東,2.2,北東,19.3,90.4,0,0,0,0,0,0,996.2,1009.8
77,2020-06-22T01:16:00,1,北東,2.2,北東,19.4,90.5,0,0,0,0,0,0,996.2,1009.8
78,2020-06-22T01:17:00,1,北東,2.2,北東,19.1,89.8,0,0,0,0,0,0,996.2,1009.8
79,2020-06-22T01:18:00,0.9,北東,1.8,北東,19,89.6,0,0,0,0,0,0,996.2,1009.8
80,2020-06-22T01:19:00,0.9,北東,2.1,北東,19,90.2,0,0,0,0,0,0,996.1,1009.7
81,2020-06-22T01:20:00,1,北東,2.1,北東,19.1,90.5,0,0,0,0,0,0,996.1,1009.7
82,2020-06-22T01:21:00,1.1,北東,2.3,北北東,19.1,90.9,0,0,0,0,0,0,996.1,1009.7
83,2020-06-22T01:22:00,1.2,北東,2.9,北北東,19.2,91,0,0,0,0,0,0,996.1,1009.7
84,2020-06-22T01:23:00,1.3,北東,3.1,北北東,19.3,90.9,0,0,0,0,0,0,996,1009.6
85,2020-06-22T01:24:00,1.4,北北東,3.3,北,19.1,90,0,0,0,0,0,0,996,1009.6
86,2020-06-22T01:25:00,1.6,北北東,3.3,北,19.2,90.2,0,0,0,0,0,0,996,1009.6
87,2020-06-22T01:26:00,1.7,北北東,3.3,北,19.1,90,0,0,0,0,0,0,996,1009.6
88,2020-06-22T01:27:00,1.8,北北東,3.3,北,19.1,90,0,0,0,0,0,0,996,1009.6
89,2020-06-22T01:28:00,1.8,北北東,3.3,北,19.1,89.8,0,0,0,0,0,0,996,1009.6
90,2020-06-22T01:29:00,1.8,北北東,3.3,北,19.1,89.8,0,0,0,0,0,0,996,1009.6
91,2020-06-22T01:30:00,1.7,北北東,3.3,北,19,89.8,0,0,0,0,0,0,996,1009.6
92,2020-06-22T01:31:00,1.7,北北東,3.3,北,19,89.8,0,0,0,0,0,0,996,1009.6
93,2020-06-22T01:32:00,1.6,北北東,3.3,北,19,89.8,0,0,0,0,0,0,995.9,1009.5
94,2020-06-22T01:33:00,1.5,北北東,3.3,北,19,90.2,0,0,0,0,0,0,995.9,1009.5
95,2020-06-22T01:34:00,1.4,北北東,2.8,北北東,19,90.3,0,0,0,0,0,0,995.9,1009.5
96,2020-06-22T01:35:00,1.3,北北東,2.4,北北東,19.1,90.4,0,0,0,0,0,0,995.9,1009.5
97,2020-06-22T01:36:00,1.3,北北東,2.3,北北東,19.1,90.3,0,0,0,0,0,0,995.9,1009.5
98,2020-06-22T01:37:00,1.2,北北東,2.3,北北東,19.1,90.2,0,0,0,0,0,0,995.9,1009.5
99,2020-06-22T01:38:00,1.2,北北東,2.3,北北東,19,90.1,0,0,0,0,0,0,995.9,1009.5
100,2020-06-22T01:39:00,1.2,北北東,2.3,北北東,19,90.2,0,0,0,0,0,0,995.9,1009.5
101,2020-06-22T01:40:00,1.3,北北東,2.3,北北東,19.1,90.5,0,0,0,0,0,0,995.9,1009.5
102,2020-06-22T01:41:00,1.3,北北東,2.3,北北東,19.2,91,0,0,0,0,0,0,995.9,1009.5
103,2020-06-22T01:42:00,1.3,北北東,2.3,北北東,19.1,90.5,0,0,0,0,0,0,995.8,1009.4
104,2020-06-22T01:43:00,1.3,北北東,2.5,北北東,19.1,90.2,0,0,0,0,0,0,995.8,1009.4
105,2020-06-22T01:44:00,1.2,北北東,2.5,北北東,19.1,90.3,0,0,0,0,0,0,995.8,1009.4
106,2020-06-22T01:45:00,1.3,北北東,2.5,北北東,19,89.9,0,0,0,0,0,0,995.8,1009.4
107,2020-06-22T01:46:00,1.3,北北東,2.5,北北東,19,90.1,0,0,0,0,0,0,995.8,1009.4
108,2020-06-22T01:47:00,1.4,北北東,2.5,北北東,19.1,90,0,0,0,0,0,0,995.8,1009.4
109,2020-06-22T01:48:00,1.4,北北東,2.5,北北東,19,89.8,0,0,0,0,0,0,995.8,1009.4
110,2020-06-22T01:49:00,1.3,北北東,2.5,北北東,18.9,89.9,0,0,0,0,0,0,995.7,1009.3
111,2020-06-22T01:50:00,1.2,北北東,2.5,北北東,19,89.9,0,0,0,0,0,0,995.7,1009.3
112,2020-06-22T01:51:00,1.1,北北東,2.5,北北東,18.8,89.9,0,0,0,0,0,0,995.8,1009.4
113,2020-06-22T01:52:00,1,北北東,2.5,北北東,18.7,90.3,0,0,0,0,0,0,995.8,1009.4
114,2020-06-22T01:53:00,1,北北東,2.3,北北東,18.8,90.7,0,0,0,0,0,0,995.8,1009.4
115,2020-06-22T01:54:00,1.1,北北東,2.7,北東,18.8,91.1,0,0,0,0,0,0,995.8,1009.4
116,2020-06-22T01:55:00,1.2,北北東,2.7,北東,18.7,91.1,0,0,0,0,0,0,995.8,1009.4
117,2020-06-22T01:56:00,1.2,北北東,2.7,北東,18.7,91.1,0,0,0,0,0,0,995.8,1009.4
118,2020-06-22T01:57:00,1.2,北北東,2.7,北東,18.8,91.3,0,0,0,0,0,0,995.8,1009.4
119,2020-06-22T01:58:00,1.3,北東,2.7,北東,18.8,91,0,0,0,0,0,0,995.8,1009.4
120,2020-06-22T01:59:00,1.5,北東,2.8,北東,18.9,91.1,0,0,0,0,0,0,995.7,1009.3
121,2020-06-22T02:00:00,1.6,北東,2.8,北東,18.9,91.2,0,0,0,0,0,0,995.7,1009.3
122,2020-06-22T02:01:00,1.8,北東,2.8,北東,18.9,90.7,0,0,0,0,0,0,995.7,1009.3
123,2020-06-22T02:02:00,1.9,北東,2.8,北東,18.9,90.8,0,0,0,0,0,0,995.7,1009.3
124,2020-06-22T02:03:00,1.9,北東,2.8,北東,19,90.9,0,0,0,0,0,0,995.7,1009.3
125,2020-06-22T02:04:00,1.9,北東,2.8,北東,18.9,90.4,0,0,0,0,0,0,995.7,1009.3
126,2020-06-22T02:05:00,1.9,北東,2.8,北東,18.9,90.2,0,0,0,0,0,0,995.7,1009.3
127,2020-06-22T02:06:00,1.8,北東,2.8,北東,18.9,90.2,0,0,0,0,0,0,995.8,1009.4
128,2020-06-22T02:07:00,1.7,北東,2.8,北東,19,90.5,0,0,0,0,0,0,995.8,1009.4
129,2020-06-22T02:08:00,1.7,北東,2.8,北東,18.9,90.1,0,0,0,0,0,0,995.8,1009.4
130,2020-06-22T02:09:00,1.6,北東,2.5,北東,18.8,89.9,0,0,0,0,0,0,995.7,1009.3
131,2020-06-22T02:10:00,1.5,北東,2.4,北東,18.9,90.3,0,0,0,0,0,0,995.7,1009.3
132,2020-06-22T02:11:00,1.5,北東,2.6,北北東,18.8,90.4,0,0,0,0,0,0,995.7,1009.3
133,2020-06-22T02:12:00,1.6,北東,3.7,北東,18.9,90.6,0,0,0,0,0,0,995.7,1009.3
134,2020-06-22T02:13:00,1.7,北東,3.7,北東,18.8,90.4,0,0,0,0,0,0,995.7,1009.3
135,2020-06-22T02:14:00,1.7,北東,3.7,北東,18.9,90.8,0,0,0,0,0,0,995.7,1009.3
136,2020-06-22T02:15:00,1.6,北東,3.7,北東,18.8,90.5,0,0,0,0,0,0,995.7,1009.3
137,2020-06-22T02:16:00,1.7,北東,3.7,北東,18.8,90.3,0,0,0,0,0,0,995.7,1009.3
138,2020-06-22T02:17:00,1.8,北東,3.7,北東,18.8,90.7,0,0,0,0,0,0,995.6,1009.2
139,2020-06-22T02:18:00,1.9,北東,3.7,北東,18.8,90.6,0,0,0,0,0,0,995.6,1009.2
140,2020-06-22T02:19:00,1.9,北北東,3.7,北東,18.9,90.7,0,0,0,0,0,0,995.6,1009.2
141,2020-06-22T02:20:00,2,北北東,3.7,北東,18.9,90.8,0,0,0,0,0,0,995.6,1009.2
142,2020-06-22T02:21:00,1.9,北北東,3.7,北東,19.1,90.9,0,0,0,0,0,0,995.6,1009.2
143,2020-06-22T02:22:00,1.8,北北東,3.3,北北東,19,90.2,0,0,0,0,0,0,995.6,1009.2
144,2020-06-22T02:23:00,1.7,北北東,3.3,北北東,18.8,89.6,0,0,0,0,0,0,995.6,1009.2
145,2020-06-22T02:24:00,1.7,北北東,3.3,北北東,18.8,89.8,0,0,0,0,0,0,995.6,1009.2
146,2020-06-22T02:25:00,1.7,北北東,3.3,北北東,18.8,90.4,0,0,0,0,0,0,995.6,1009.2
147,2020-06-22T02:26:00,1.5,北北東,3.3,北北東,18.9,90.7,0,0,0,0,0,0,995.7,1009.3
148,2020-06-22T02:27:00,1.4,北北東,3,北北東,18.8,90.7,0,0,0,0,0,0,995.6,1009.2
149,2020-06-22T02:28:00,1.4,北北東,3.1,北北東,18.9,90.8,0,0,0,0,0,0,995.6,1009.2
150,2020-06-22T02:29:00,1.4,北北東,3.1,北北東,18.8,90.7,0,0,0,0,0,0,995.6,1009.2
151,2020-06-22T02:30:00,1.5,北北東,3.1,北北東,18.9,90.8,0,0,0,0,0,0,995.5,1009.1
152,2020-06-22T02:31:00,1.6,北北東,3.1,北北東,18.8,90.4,0,0,0,0,0,0,995.5,1009.1
153,2020-06-22T02:32:00,1.7,北北東,3.4,北東,18.9,90.4,0,0,0,0,0,0,995.5,1009.1
154,2020-06-22T02:33:00,1.8,北北東,3.4,北東,18.9,90.1,0,0,0,0,0,0,995.5,1009.1
155,2020-06-22T02:34:00,1.8,北北東,3.4,北東,18.9,89.7,0,0,0,0,0,0,995.4,1009
156,2020-06-22T02:35:00,1.9,北東,3.4,北東,19,89.7,0,0,0,0,0,0,995.4,1009
157,2020-06-22T02:36:00,2,北東,3.4,北東,18.9,89.3,0,0,0,0,0,0,995.4,1009
158,2020-06-22T02:37:00,2.1,北東,3.4,北東,18.8,89,0,0,0,0,0,0,995.4,1009
159,2020-06-22T02:38:00,2.1,北東,3.4,北東,18.8,89.2,0,0,0,0,0,0,995.4,1009
160,2020-06-22T02:39:00,2.2,北東,3.4,北東,18.7,89.4,0,0,0,0,0,0,995.4,1009
161,2020-06-22T02:40:00,2.1,北東,3.4,北東,18.7,89.3,0,0,0,0,0,0,995.4,1009
162,2020-06-22T02:41:00,2.1,北東,3.4,北東,18.9,90,0,0,0,0,0,0,995.4,1009
163,2020-06-22T02:42:00,2,北東,3.2,北東,18.9,89.9,0,0,0,0,0,0,995.5,1009.1
164,2020-06-22T02:43:00,2,北東,3.2,北東,18.9,89.4,0,0,0,0,0,0,995.5,1009.1
165,2020-06-22T02:44:00,2.1,北東,4.3,北東,18.9,89.3,0,0,0,0,0,0,995.5,1009.1
166,2020-06-22T02:45:00,2.2,北東,4.3,北東,18.9,89.3,0,0,0,0,0,0,995.5,1009.1
167,2020-06-22T02:46:00,2.2,北東,4.3,北東,18.9,89.2,0,0,0,0,0,0,995.5,1009.1
168,2020-06-22T02:47:00,2.3,北東,4.3,北東,18.7,89.1,0,0,0,0,0,0,995.5,1009.1
169,2020-06-22T02:48:00,2.2,北東,4.3,北東,18.7,89,0,0,0,0,0,0,995.5,1009.1
170,2020-06-22T02:49:00,2.2,北東,4.3,北東,18.8,89.5,0,0,0,0,0,0,995.5,1009.1
171,2020-06-22T02:50:00,2.2,北東,4.3,北東,18.7,89.5,0,0,0,0,0,0,995.5,1009.1
172,2020-06-22T02:51:00,2.2,北東,4.3,北東,18.7,89.6,0,0,0,0,0,0,995.5,1009.1
173,2020-06-22T02:52:00,2.3,北東,4.3,北東,18.8,90.2,0,0,0,0,0,0,995.5,1009.1
174,2020-06-22T02:53:00,2.3,北東,4.3,北東,18.8,90,0,0,0,0,0,0,995.5,1009.1
175,2020-06-22T02:54:00,2.2,北北東,3.5,北東,18.6,89.5,0,0,0,0,0,0,995.5,1009.1
176,2020-06-22T02:55:00,2.1,北北東,3.3,北北東,18.7,89.6,0,0,0,0,0,0,995.5,1009.1
177,2020-06-22T02:56:00,2.1,北北東,3.3,北北東,18.6,89.9,0,0,0,0,0,0,995.5,1009.1
178,2020-06-22T02:57:00,2.1,北北東,3.3,北北東,18.7,90.2,0,0,0,0,0,0,995.5,1009.1
179,2020-06-22T02:58:00,2.1,北北東,3.3,北北東,18.7,90.3,0,0,0,0,0,0,995.5,1009.1
180,2020-06-22T02:59:00,2.1,北北東,3.3,北北東,18.6,89.7,0,0,0,0,0,0,995.5,1009.1
181,2020-06-22T03:00:00,2.1,北北東,3.3,北北東,18.7,90,0,0,0,0,0,0,995.5,1009.1
182,2020-06-22T03:01:00,2.1,北北東,3.3,北北東,18.7,89.9,0,0,0,0,0,0,995.5,1009.1
183,2020-06-22T03:02:00,2.1,北東,3.4,北北東,18.7,90.1,0,0,0,0,0,0,995.5,1009.1
184,2020-06-22T03:03:00,2.1,北東,3.4,北北東,18.8,90,0,0,0,0,0,0,995.5,1009.1
185,2020-06-22T03:04:00,2.1,北東,3.4,北北東,18.7,89.6,0,0,0,0,0,0,995.5,1009.1
186,2020-06-22T03:05:00,2.1,北東,3.4,北北東,18.8,89.8,0,0,0,0,0,0,995.5,1009.1
187,2020-06-22T03:06:00,2.1,北東,3.4,北北東,18.8,89.7,0,0,0,0,0,0,995.5,1009.1
188,2020-06-22T03:07:00,2,北東,3.4,北北東,18.8,89.5,0,0,0,0,0,0,995.6,1009.2
189,2020-06-22T03:08:00,2,北東,3.4,北北東,18.8,89.5,0,0,0,0,0,0,995.6,1009.2
190,2020-06-22T03:09:00,1.9,北北東,3.4,北北東,18.7,89.3,0,0,0,0,0,0,995.6,1009.2
191,2020-06-22T03:10:00,1.8,北北東,3.4,北北東,18.9,89.7,0,0,0,0,0,0,995.6,1009.2
192,2020-06-22T03:11:00,1.7,北北東,3.4,北北東,18.7,89.1,0,0,0,0,0,0,995.6,1009.2
193,2020-06-22T03:12:00,1.5,北北東,3.3,北東,18.7,89.1,0,0,0,0,0,0,995.6,1009.2
194,2020-06-22T03:13:00,1.4,北北東,3.2,北東,18.6,89.3,0,0,0,0,0,0,995.6,1009.2
195,2020-06-22T03:14:00,1.5,北北東,3.2,北東,18.7,89.8,0,0,0,0,0,0,995.6,1009.2
196,2020-06-22T03:15:00,1.6,北北東,3.4,北北東,18.7,89.8,0,0,0,0,0,0,995.6,1009.2
197,2020-06-22T03:16:00,1.6,北北東,3.4,北北東,18.8,90.3,0,0,0,0,0,0,995.6,1009.2
198,2020-06-22T03:17:00,1.6,北北東,3.4,北北東,18.7,89.7,0,0,0,0,0,0,995.6,1009.2
199,2020-06-22T03:18:00,1.7,北北東,3.4,北北東,18.8,89.7,0,0,0,0,0,0,995.6,1009.2
200,2020-06-22T03:19:00,1.7,北北東,3.4,北北東,18.8,89.8,0,0,0,0,0,0,995.6,1009.2
201,2020-06-22T03:20:00,1.7,北北東,3.4,北北東,18.7,89.5,0,0,0,0,0,0,995.6,1009.2
202,2020-06-22T03:21:00,1.7,北北東,3.4,北北東,18.7,89.8,0,0,0,0,0,0,995.6,1009.2
203,2020-06-22T03:22:00,1.9,北北東,3.4,北北東,18.9,90.1,0,0,0,0,0,0,995.6,1009.2
204,2020-06-22T03:23:00,2,北北東,3.4,北北東,18.8,89.5,0,0,0,0,0,0,995.6,1009.2
205,2020-06-22T03:24:00,2,北北東,3.4,北北東,18.8,89.3,0,0,0,0,0,0,995.6,1009.2
206,2020-06-22T03:25:00,1.9,北北東,3.4,北,18.7,89.1,0,0,0,0,0,0,995.6,1009.2
207,2020-06-22T03:26:00,1.9,北北東,3.4,北,18.7,89.3,0,0,0,0,0,0,995.6,1009.2
208,2020-06-22T03:27:00,2,北北東,3.4,北,18.6,89.3,0,0,0,0,0,0,995.6,1009.2
209,2020-06-22T03:28:00,2,北北東,3.4,北,18.6,89.2,0,0,0,0,0,0,995.6,1009.2
210,2020-06-22T03:29:00,2.1,北東,3.4,北,18.6,89.5,0,0,0,0,0,0,995.6,1009.2
211,2020-06-22T03:30:00,2.1,北東,3.4,北,18.6,89.8,0,0,0,0,0,0,995.6,1009.2
212,2020-06-22T03:31:00,2.2,北東,3.4,北,18.7,90,0,0,0,0,0,0,995.6,1009.2
213,2020-06-22T03:32:00,2.2,北東,3.4,北,18.8,90,0,0,0,0,0,0,995.6,1009.2
214,2020-06-22T03:33:00,2.2,北東,3.4,北,18.7,89.3,0,0,0,0,0,0,995.6,1009.2
215,2020-06-22T03:34:00,2.2,北東,3.4,北,18.6,89.2,0,0,0,0,0,0,995.6,1009.2
216,2020-06-22T03:35:00,2.1,北東,3.2,北東,18.7,89.6,0,0,0,0,0,0,995.6,1009.2
217,2020-06-22T03:36:00,2,北東,3.2,北東,18.7,89.6,0,0,0,0,0,0,995.6,1009.2
218,2020-06-22T03:37:00,2.1,北東,3.2,北東,18.8,89.9,0,0,0,0,0,0,995.7,1009.3
219,2020-06-22T03:38:00,2.1,北東,3.2,北東,18.9,90.1,0,0,0,0,0,0,995.6,1009.2
220,2020-06-22T03:39:00,1.9,北東,3.2,北東,18.9,89.8,0,0,0,0,0,0,995.6,1009.2
221,2020-06-22T03:40:00,1.9,北東,3.2,北東,18.8,89.2,0,0,0,0,0,0,995.7,1009.3
222,2020-06-22T03:41:00,1.9,北東,3.2,北東,18.8,88.8,0,0,0,0,0,0,995.7,1009.3
223,2020-06-22T03:42:00,1.8,北東,3.2,北東,18.7,89,0,0,0,0,0,0,995.7,1009.3
224,2020-06-22T03:43:00,1.8,北東,2.9,北北東,18.7,89.1,0,0,0,0,0,0,995.7,1009.3
225,2020-06-22T03:44:00,1.8,北東,2.9,北北東,18.8,89.6,0,0,0,0,0,0,995.7,1009.3
226,2020-06-22T03:45:00,1.9,北東,2.9,北北東,18.6,89.1,0,0,0,0,0,0,995.7,1009.3
227,2020-06-22T03:46:00,1.9,北東,2.9,北北東,18.7,89.2,0,0,0,0,0,0,995.7,1009.3
228,2020-06-22T03:47:00,1.9,北東,2.9,北北東,18.7,89.5,0,0,0,0,0,0,995.7,1009.3
229,2020-06-22T03:48:00,1.9,北東,2.9,北北東,18.8,89.7,0,0,0,0,0,0,995.7,1009.3
230,2020-06-22T03:49:00,1.9,北東,2.9,北北東,18.5,88.9,0,0,0,0,0,0,995.7,1009.3
231,2020-06-22T03:50:00,1.8,北東,2.9,北北東,18.6,89.1,0,0,0,0,0,0,995.7,1009.3
232,2020-06-22T03:51:00,1.8,北東,2.9,北北東,18.7,89.6,0,0,0,0,0,0,995.7,1009.3
233,2020-06-22T03:52:00,1.7,北東,2.9,北北東,18.5,89.2,0,0,0,0,0,0,995.7,1009.3
234,2020-06-22T03:53:00,1.6,北北東,2.9,北北東,18.7,89.5,0,0,0,0,0,0,995.7,1009.3
235,2020-06-22T03:54:00,1.4,北北東,2.9,北北東,18.6,89.5,0,0,0,0,0,0,995.6,1009.2
236,2020-06-22T03:55:00,1.3,北北東,2.9,北北東,18.6,89,0,0,0,0,0,0,995.6,1009.2
237,2020-06-22T03:56:00,1.2,北北東,2.5,北北東,18.6,89.4,0,0,0,0,0,0,995.6,1009.2
238,2020-06-22T03:57:00,1.1,北北東,2.2,北,18.6,89.5,0,0,0,0,0,0,995.6,1009.2
239,2020-06-22T03:58:00,1,北北東,2.2,北,18.6,89.4,0,0,0,0,0,0,995.6,1009.2
240,2020-06-22T03:59:00,1,北北東,1.8,北北東,18.8,89.9,0,0,0,0,0,0,995.6,1009.2
241,2020-06-22T04:00:00,1,北北東,1.9,北,18.7,89.5,0,0,0,0,0,0,995.6,1009.2
242,2020-06-22T04:01:00,1,北北東,1.9,北,18.6,89,0,0,0,0,0,0,995.6,1009.2
243,2020-06-22T04:02:00,1.1,北北東,1.9,北,18.6,89.2,0,0,0,0,0,0,995.6,1009.2
244,2020-06-22T04:03:00,1.1,北北東,1.9,北,18.6,89.2,0,0,0,0,0,0,995.6,1009.2
245,2020-06-22T04:04:00,1.1,北北東,1.9,北,18.6,89.4,0,0,0,0,0,0,995.6,1009.2
246,2020-06-22T04:05:00,1.2,北北東,1.9,北,18.7,89.5,0,0,0,0,0,0,995.6,1009.2
247,2020-06-22T04:06:00,1.1,北北東,1.9,北,18.7,89.7,0,0,0,0,0,0,995.6,1009.2
248,2020-06-22T04:07:00,1.2,北北東,1.9,北,18.8,89.9,0,0,0,0,0,0,995.6,1009.2
249,2020-06-22T04:08:00,1.2,北北東,1.9,北,18.7,89.1,0,0,0,0,0,0,995.6,1009.2
250,2020-06-22T04:09:00,1.2,北北東,1.9,北,18.6,89.1,0,0,0,0,0,0,995.6,1009.2
251,2020-06-22T04:10:00,1.2,北北東,1.8,北北東,18.7,89.4,0,0,0,0,0,0,995.6,1009.2
252,2020-06-22T04:11:00,1.2,北北東,1.8,北北東,18.6,89.4,0,0,0,0,0,0,995.5,1009.1
253,2020-06-22T04:12:00,1.2,北北東,1.8,北北東,18.6,89.4,0,0,0,0,0,0,995.5,1009.1
254,2020-06-22T04:13:00,1.1,北北東,1.8,北北東,18.7,89.8,0,0,0,0,0,0,995.6,1009.2
255,2020-06-22T04:14:00,1.1,北北東,1.8,北北東,18.7,89.6,0,0,0,0,0,0,995.6,1009.2
256,2020-06-22T04:15:00,1.1,北北東,1.8,北北東,18.7,89.4,0,0,0,0,0,0,995.6,1009.2
257,2020-06-22T04:16:00,1.1,北,1.8,北北東,18.6,89.3,0,0,0,0,0,0,995.6,1009.2
258,2020-06-22T04:17:00,1.1,北,1.8,北北東,18.6,89.3,0,0,0,0,0,0,995.5,1009.1
259,2020-06-22T04:18:00,1.1,北,1.8,北北東,18.5,89.5,0,0,0,0,0,0,995.6,1009.2
260,2020-06-22T04:19:00,1.1,北,2.2,北西,18.4,89.6,0,0,0,0,0,0,995.6,1009.2
261,2020-06-22T04:20:00,1.1,北北西,2.2,北西,18.4,89.9,0,0,0,0,0,0,995.6,1009.2
262,2020-06-22T04:21:00,1.1,北北西,2.2,北西,18.4,90.4,0,0,0,0,0,0,995.6,1009.2
263,2020-06-22T04:22:00,1.2,北北西,2.2,北西,18.3,90.5,0,0,0,0,0,0,995.6,1009.2
264,2020-06-22T04:23:00,1.2,北西,2.2,北西,18.5,91.1,0,0,0,0,0,0,995.7,1009.3
265,2020-06-22T04:24:00,1.1,北西,2.2,北西,18.4,91.2,0,0,0,0,0,0,995.7,1009.3
266,2020-06-22T04:25:00,1.1,北西,2.2,北西,18.5,91.1,0,0,0,0,0,0,995.7,1009.3
267,2020-06-22T04:26:00,1,北西,2.2,北西,18.4,91.1,0,0,0,0,0,0,995.7,1009.3
268,2020-06-22T04:27:00,1,北西,2.2,北西,18.4,91,0,0,0,0,0,0,995.7,1009.3
269,2020-06-22T04:28:00,0.9,北西,2.2,北西,18.5,91.2,0,0,0,0,0,0,995.7,1009.3
270,2020-06-22T04:29:00,0.8,北北西,2.1,北西,18.4,91,0,0,0,0,0,0,995.7,1009.3
271,2020-06-22T04:30:00,0.7,北北西,1.9,北西,18.4,91,0,0,0,0,0,0,995.7,1009.3
272,2020-06-22T04:31:00,0.7,北北西,1.6,北西,18.6,91.5,0,0,0,0,0,0,995.7,1009.3
273,2020-06-22T04:32:00,0.7,北北西,1.9,北北東,18.6,91.3,0,0,0,0,0,0,995.7,1009.3
274,2020-06-22T04:33:00,0.6,北,1.9,北北東,18.7,91,0,0,0,0,0,0,995.7,1009.3
275,2020-06-22T04:34:00,0.6,北,1.9,北北東,18.5,90.1,0,0,0,0,0,0,995.7,1009.3
276,2020-06-22T04:35:00,0.6,北,1.9,北北東,18.4,89.7,0,0,0,0,0,0,995.7,1009.3
277,2020-06-22T04:36:00,0.6,北,1.9,北北東,18.4,90,0,0,0,0,0,0,995.7,1009.3
278,2020-06-22T04:37:00,0.7,北,1.9,北北東,18.5,90.8,0,0,0,0,0,0,995.7,1009.3
279,2020-06-22T04:38:00,0.7,北,1.9,北北東,18.3,90.7,0,0,0,0,0,0,995.6,1009.2
280,2020-06-22T04:39:00,0.7,北,1.9,北北東,18.3,90.7,0,0,0,0,0,0,995.6,1009.2
281,2020-06-22T04:40:00,0.7,北,1.9,北北東,18.5,91.2,0,0,0,0,0,0,995.6,1009.2
282,2020-06-22T04:41:00,0.7,北北東,1.9,北北東,18.4,91,0,0,0,0,0,0,995.6,1009.2
283,2020-06-22T04:42:00,0.6,北北東,1.5,北,18.4,90.8,0,0,0,0,0,0,995.6,1009.2
284,2020-06-22T04:43:00,0.6,北北東,1.3,北北東,18.3,90.5,0,0,0,0,0,0,995.6,1009.2
285,2020-06-22T04:44:00,0.6,北北東,1.3,北北東,18.5,91.2,0,0,0,0,0,0,995.6,1009.2
286,2020-06-22T04:45:00,0.7,北北東,1.3,北北東,18.6,91.4,0,0,0,0,0,0,995.6,1009.2
287,2020-06-22T04:46:00,0.7,北北東,1.3,北北東,18.4,90.5,0,0,0,0,0,0,995.6,1009.2
288,2020-06-22T04:47:00,0.8,北北東,1.4,北北東,18.4,90.2,0,0,0,0,0,0,995.6,1009.2
289,2020-06-22T04:48:00,0.8,北北東,1.6,北北東,18.5,90.5,0,0,0,0,0,0,995.7,1009.3
290,2020-06-22T04:49:00,0.9,北北東,1.6,北北東,18.5,90.6,0,0,0,0,0,0,995.7,1009.3
291,2020-06-22T04:50:00,0.9,北北東,1.7,北北東,18.4,90.4,0,0,0,0,0,0,995.7,1009.3
292,2020-06-22T04:51:00,0.9,北北東,1.7,北北東,18.4,90.4,0,0,0,0,0,0,995.7,1009.3
293,2020-06-22T04:52:00,0.9,北北東,1.7,北北東,18.5,90.6,0,0,0,0,0,0,995.7,1009.3
294,2020-06-22T04:53:00,0.9,北北東,1.7,北北東,18.5,90.7,0,0,0,0,0,0,995.7,1009.3
295,2020-06-22T04:54:00,1,北北東,1.7,北北東,18.5,90.7,0,0,0,0,0,0,995.7,1009.3
296,2020-06-22T04:55:00,0.9,北北東,1.7,北北東,18.4,90.9,0,0,0,0,0,0,995.7,1009.3
297,2020-06-22T04:56:00,0.9,北北東,1.7,北北東,18.4,90.7,0,0,0,0,0,0,995.7,1009.3
298,2020-06-22T04:57:00,1,北北東,1.7,北北東,18.3,90.6,0,0,0,0,0,0,995.7,1009.3
299,2020-06-22T04:58:00,1,北北東,1.7,北北東,18.4,90.7,0,0,0,0,0,0,995.7,1009.3
300,2020-06-22T04:59:00,1,北北東,1.7,北北東,18.5,91,0,0,0,0,0,0,995.7,1009.3
301,2020-06-22T05:00:00,0.9,北北東,1.7,北,18.5,91.1,0,0,0,0,0,0,995.7,1009.3
302,2020-06-22T05:01:00,0.9,北北東,1.7,北,18.5,91,0,0,0,0,0,0,995.7,1009.3
303,2020-06-22T05:02:00,0.9,北北東,1.7,北,18.4,90.4,0,0,0,0,0,0,995.7,1009.3
304,2020-06-22T05:03:00,0.9,北北東,1.7,北,18.4,90.4,0,0,0,0,0,0,995.7,1009.3
305,2020-06-22T05:04:00,0.9,北北東,1.7,北,18.5,90.8,0,0,0,0,0,0,995.7,1009.3
306,2020-06-22T05:05:00,0.9,北北東,1.7,北,18.5,90.8,0,0,0,0,0,0,995.7,1009.3
307,2020-06-22T05:06:00,0.9,北,1.7,北,18.4,90.3,0,0,0,0,0,0,995.7,1009.3
308,2020-06-22T05:07:00,0.9,北,1.7,北,18.5,90.6,0,0,0,0,0,0,995.7,1009.3
309,2020-06-22T05:08:00,0.9,北,2,北,18.6,90.9,0,0,0,0,0,0,995.7,1009.3
310,2020-06-22T05:09:00,0.9,北,2.1,北,18.6,90.9,0,0,0,0,0,0,995.7,1009.3
311,2020-06-22T05:10:00,1,北,2.9,北,18.6,90.5,0,0,0,0,0,0,995.7,1009.3
312,2020-06-22T05:11:00,1.1,北,2.9,北,18.6,90,0,0,0,0,0,0,995.7,1009.3
313,2020-06-22T05:12:00,1.2,北,2.9,北,18.5,90,0,0,0,0,0,0,995.7,1009.3
314,2020-06-22T05:13:00,1.2,北,2.9,北,18.4,89.9,0,0,0,0,0.01,0,995.7,1009.3
315,2020-06-22T05:14:00,1.3,北,2.9,北,18.4,90.1,0,0,0,0,0.01,0,995.7,1009.3
316,2020-06-22T05:15:00,1.3,北,2.9,北,18.4,90.6,0,0,0,0,0.01,0,995.7,1009.3
317,2020-06-22T05:16:00,1.4,北,2.9,北,18.3,90.5,0,0,0,0,0.01,0,995.7,1009.3
318,2020-06-22T05:17:00,1.4,北,2.9,北,18.4,90.6,0,0,0,0,0.01,0,995.7,1009.3
319,2020-06-22T05:18:00,1.3,北,2.9,北,18.5,91.1,0,0,0,0,0.01,0,995.7,1009.3
320,2020-06-22T05:19:00,1.3,北,2.9,北,18.5,90.8,0,0,0,0,0.01,0,995.8,1009.4
321,2020-06-22T05:20:00,1.3,北,2.5,北北東,18.6,91.1,0,0,0,0,0.01,0,995.8,1009.4
322,2020-06-22T05:21:00,1.2,北,2.5,北北東,18.4,90.6,0,0,0,0,0.01,0,995.8,1009.4
323,2020-06-22T05:22:00,1.2,北,2.5,北北東,18.3,90.3,0,0,0,0,0.02,0,995.8,1009.4
324,2020-06-22T05:23:00,1.1,北北西,2.5,北北東,18.3,90.6,0,0,0,0,0.02,0,995.8,1009.4
325,2020-06-22T05:24:00,1.1,北,2.5,北北東,18.2,90.6,0,0,0,0,0.02,0,995.8,1009.4
326,2020-06-22T05:25:00,1,北北西,2,北北東,18.3,91.2,0,0,0,0,0.02,0,995.8,1009.4
327,2020-06-22T05:26:00,0.9,北北西,1.9,北西,18.3,91.3,0,0,0,0,0.02,0,995.8,1009.4